When you browse on this site, cookies collect data to enhance your experience and personalize the content and advertising you see.
Visit our Privacy Policy to learn more. By continuing to use the site, you agree to this use of cookies and data.
  • In Hungary
  • List of Countries
  • For 7 days
  • Water Temperature
  • Weather Map
  • News
  • Weather Widgets
  • user-avatar
    Login

    Hourly Weather Krasnovodsk

    Today, 8 December, Sunday

    Time Temperature Precipitation Wind Pressure Humidity
    00:00 +6°C° 0 mm 1 mps 717 mmHg 60%
    01:00 +6°C° 0 mm 1 mps 717 mmHg 59%
    02:00 +6°C° 0 mm 1 mps 716 mmHg 58%
    03:00 +6°C° 0 mm 1 mps 716 mmHg 57%
    04:00 +6°C° 0 mm 1 mps 716 mmHg 56%
    05:00 +6°C° 0 mm 1 mps 716 mmHg 54%
    06:00 +6°C° 0 mm 1 mps 716 mmHg 53%
    07:00 +6°C° 0 mm 1 mps 715 mmHg 52%
    08:00 +6°C° 0 mm 1 mps 715 mmHg 51%
    09:00 +8°C° 0 mm 1 mps 715 mmHg 47%
    10:00 +10°C° 0 mm 1 mps 715 mmHg 43%
    11:00 +12°C° 0 mm 1 mps 716 mmHg 39%
    12:00 +13°C° 0 mm 1 mps 715 mmHg 38%
    13:00 +14°C° 0 mm 2 mps 714 mmHg 37%
    14:00 +14°C° 0 mm 2 mps 714 mmHg 36%
    15:00 +13°C° 0 mm 2 mps 713 mmHg 41%
    16:00 +10°C° 0 mm 2 mps 713 mmHg 46%
    17:00 +9°C° 0 mm 2 mps 712 mmHg 51%
    18:00 +8°C° 0 mm 2 mps 712 mmHg 51%
    19:00 +8°C° 0 mm 2 mps 712 mmHg 51%
    20:00 +7°C° 0 mm 2 mps 712 mmHg 50%
    21:00 +7°C° 0 mm 2 mps 711 mmHg 50%
    22:00 +7°C° 0 mm 2 mps 711 mmHg 49%
    23:00 +7°C° 0 mm 2 mps 710 mmHg 49%

    Tomorrow, 9 December, Monday

    Time Temperature Precipitation Wind Pressure Humidity
    00:00 +6°C° 0 mm 2 mps 710 mmHg 48%
    01:00 +7°C° 0 mm 1 mps 710 mmHg 47%
    02:00 +7°C° 0 mm 1 mps 709 mmHg 46%
    03:00 +7°C° 0 mm 1 mps 709 mmHg 45%
    04:00 +7°C° 0 mm 1 mps 709 mmHg 44%
    05:00 +7°C° 0 mm 1 mps 708 mmHg 42%
    06:00 +7°C° 0 mm 1 mps 708 mmHg 41%
    07:00 +7°C° 0 mm 1 mps 708 mmHg 41%
    08:00 +7°C° 0 mm 1 mps 708 mmHg 40%
    09:00 +9°C° 0 mm 1 mps 708 mmHg 37%
    10:00 +11°C° 0 mm 1 mps 709 mmHg 34%
    11:00 +12°C° 0 mm 0 mps 709 mmHg 31%
    12:00 +12°C° 0 mm 0 mps 709 mmHg 30%
    13:00 +13°C° 0 mm 0 mps 708 mmHg 30%
    14:00 +14°C° 0 mm 0 mps 708 mmHg 30%
    15:00 +12°C° 0 mm 0 mps 708 mmHg 35%
    16:00 +11°C° 0 mm 0 mps 708 mmHg 39%
    17:00 +9°C° 0 mm 0 mps 708 mmHg 44%
    18:00 +9°C° 0 mm 0 mps 708 mmHg 44%
    19:00 +9°C° 0 mm 0 mps 708 mmHg 44%
    20:00 +9°C° 0 mm 0 mps 709 mmHg 44%
    21:00 +10°C° 0 mm 1 mps 709 mmHg 43%
    22:00 +10°C° 0 mm 1 mps 709 mmHg 43%
    23:00 +9°C° 0 mm 1 mps 709 mmHg 43%

    Day after tomorrow, 10 December, Tuesday

    Time Temperature Precipitation Wind Pressure Humidity
    00:00 +9°C° 0 mm 2 mps 709 mmHg 41%
    01:00 +9°C° 0 mm 3 mps 709 mmHg 39%
    02:00 +9°C° 0 mm 3 mps 709 mmHg 37%
    03:00 +8°C° 0 mm 3 mps 709 mmHg 44%
    04:00 +7°C° 0 mm 2 mps 709 mmHg 51%
    05:00 +6°C° 0 mm 2 mps 709 mmHg 58%
    06:00 +6°C° 0 mm 2 mps 709 mmHg 54%
    07:00 +7°C° 0 mm 2 mps 710 mmHg 50%
    08:00 +7°C° 0 mm 2 mps 710 mmHg 46%
    09:00 +9°C° 0 mm 2 mps 710 mmHg 42%
    10:00 +12°C° 0 mm 1 mps 711 mmHg 38%
    11:00 +13°C° 0 mm 1 mps 711 mmHg 34%
    12:00 +14°C° 0 mm 1 mps 711 mmHg 33%
    13:00 +14°C° 0 mm 1 mps 711 mmHg 32%
    14:00 +15°C° 0 mm 2 mps 711 mmHg 31%
    15:00 +13°C° 0 mm 2 mps 711 mmHg 39%
    16:00 +12°C° 0 mm 1 mps 711 mmHg 47%
    17:00 +10°C° 0 mm 1 mps 710 mmHg 54%
    18:00 +10°C° 0 mm 1 mps 711 mmHg 56%
    19:00 +9°C° 0 mm 1 mps 711 mmHg 58%
    20:00 +9°C° 0 mm 1 mps 711 mmHg 60%
    21:00 +9°C° 0 mm 1 mps 711 mmHg 61%
    22:00 +7°C° 0 mm 0 mps 710 mmHg 62%
    23:00 +7°C° 0 mm 0 mps 710 mmHg 63%

    11 December, Wednesday

    Time Temperature Precipitation Wind Pressure Humidity
    00:00 +7°C° 0 mm 0 mps 710 mmHg 64%
    01:00 +7°C° 0 mm 0 mps 710 mmHg 65%
    02:00 +6°C° 0 mm 0 mps 710 mmHg 66%
    03:00 +6°C° 0 mm 0 mps 710 mmHg 67%
    04:00 +6°C° 0 mm 0 mps 710 mmHg 69%
    05:00 +6°C° 0 mm 0 mps 710 mmHg 70%
    06:00 +6°C° 0 mm 0 mps 710 mmHg 71%
    07:00 +6°C° 0 mm 0 mps 710 mmHg 71%
    08:00 +6°C° 0 mm 0 mps 710 mmHg 72%
    09:00 +7°C° 0 mm 0 mps 710 mmHg 67%
    10:00 +8°C° 0 mm 0 mps 710 mmHg 63%
    11:00 +10°C° 0 mm 1 mps 710 mmHg 58%
    12:00 +11°C° 0 mm 1 mps 710 mmHg 57%
    13:00 +11°C° 0 mm 1 mps 710 mmHg 56%
    14:00 +12°C° 0 mm 1 mps 709 mmHg 54%
    15:00 +11°C° 0 mm 1 mps 709 mmHg 59%
    16:00 +10°C° 0 mm 1 mps 709 mmHg 64%
    17:00 +9°C° 0 mm 1 mps 708 mmHg 68%
    18:00 +8°C° 0 mm 1 mps 708 mmHg 69%
    19:00 +8°C° 0 mm 1 mps 708 mmHg 71%
    20:00 +6°C° 0 mm 0 mps 708 mmHg 72%
    21:00 +6°C° 0 mm 0 mps 708 mmHg 71%
    22:00 +6°C° 0 mm 0 mps 708 mmHg 71%
    23:00 +5°C° 0 mm 0 mps 708 mmHg 70%

    12 December, Thursday

    Time Temperature Precipitation Wind Pressure Humidity
    00:00 +5°C° 0 mm 0 mps 707 mmHg 70%
    01:00 +5°C° 0 mm 0 mps 707 mmHg 70%
    02:00 +6°C° 0 mm 1 mps 707 mmHg 70%
    03:00 +6°C° 0 mm 1 mps 707 mmHg 67%
    04:00 +6°C° 0 mm 1 mps 707 mmHg 64%
    05:00 +6°C° 0 mm 1 mps 707 mmHg 61%
    06:00 +6°C° 0 mm 1 mps 707 mmHg 61%
    07:00 +5°C° 0 mm 0 mps 707 mmHg 60%
    08:00 +5°C° 0 mm 0 mps 707 mmHg 60%
    09:00 +6°C° 0 mm 0 mps 707 mmHg 58%
    10:00 +7°C° 0 mm 0 mps 707 mmHg 55%
    11:00 +9°C° 0 mm 0 mps 708 mmHg 53%
    12:00 +10°C° 0 mm 1 mps 707 mmHg 54%
    13:00 +11°C° 0 mm 1 mps 707 mmHg 54%
    14:00 +10°C° 0 mm 2 mps 707 mmHg 55%
    15:00 +10°C° 0 mm 1 mps 707 mmHg 61%
    16:00 +9°C° 0 mm 1 mps 707 mmHg 67%
    17:00 +6°C° 0 mm 0 mps 707 mmHg 73%
    18:00 +6°C° 0 mm 0 mps 707 mmHg 74%
    19:00 +6°C° 0 mm 0 mps 707 mmHg 74%
    20:00 +6°C° 0 mm 0 mps 707 mmHg 75%
    21:00 +6°C° 0 mm 0 mps 707 mmHg 76%
    22:00 +5°C° 0 mm 0 mps 707 mmHg 76%
    23:00 +5°C° 0 mm 0 mps 708 mmHg 77%

    13 December, Friday

    Time Temperature Precipitation Wind Pressure Humidity
    00:00 +5°C° 0 mm 0 mps 708 mmHg 78%
    01:00 +5°C° 0 mm 0 mps 707 mmHg 79%
    02:00 +4°C° 0 mm 0 mps 707 mmHg 81%
    03:00 +4°C° 0 mm 0 mps 708 mmHg 81%
    04:00 +4°C° 0 mm 0 mps 708 mmHg 82%
    05:00 +4°C° 0 mm 0 mps 708 mmHg 83%
    06:00 +4°C° 0 mm 0 mps 708 mmHg 82%
    07:00 +4°C° 0 mm 0 mps 708 mmHg 81%
    08:00 +4°C° 0 mm 0 mps 709 mmHg 80%
    09:00 +5°C° 0 mm 0 mps 709 mmHg 77%
    10:00 +7°C° 0 mm 1 mps 709 mmHg 73%
    11:00 +8°C° 0 mm 1 mps 710 mmHg 70%
    12:00 +8°C° 0 mm 1 mps 709 mmHg 70%
    13:00 +8°C° 0 mm 1 mps 709 mmHg 71%
    14:00 +9°C° 0 mm 1 mps 709 mmHg 71%
    15:00 +8°C° 0 mm 1 mps 709 mmHg 74%
    16:00 +8°C° 0 mm 1 mps 709 mmHg 78%
    17:00 +7°C° 0 mm 1 mps 710 mmHg 81%
    18:00 +7°C° 0 mm 1 mps 710 mmHg 82%
    19:00 +7°C° 0 mm 1 mps 710 mmHg 84%
    20:00 +7°C° 0 mm 1 mps 710 mmHg 85%
    21:00 +6°C° 0 mm 1 mps 710 mmHg 85%
    22:00 +6°C° 0 mm 1 mps 710 mmHg 86%
    23:00 +5°C° 0 mm 1 mps 710 mmHg 87%
    Show more